Hourly Data Report for November 17, 2017

All times are specified in Local Standard Time (LST). Add 1 hour to adjust for Daylight Saving Time where and when it is observed.

GIMLI CLIMATE
MANITOBA

50°38'00.000" N
97°03'00.000" W
230.10 m
5031042
71748
PGH

Download Data

Hourly Data (November 2017)
Hourly Data Report for November 17, 2017
Temp Definition
°C
Dew Point Temp Definition
°C
Rel Hum Definition
%
Wind Dir Definition
10's deg

Wind Spd Definition
km/h
Visibility Definition
km
Stn Press Definition
kPa
Hmdx Definition


Wind Chill Definition


Weather Definition


TIME
00:00 -1.5 -4.3 81 18 44   97.23   -10 LegendNANA
01:00 -1.3 -3.3 86 18 32   97.06   -8 LegendNANA
02:00 -1.0 -3.0 86 18 34   97.00   -8 LegendNANA
03:00 -0.8 -2.5 88 19 38   96.98   -8 LegendNANA
04:00 -0.5 -2.4 87 20 34   96.95   -8 LegendNANA
05:00 -1.4 -5.6 73 24 38   97.00   -9 LegendNANA
06:00 -3.5 -7.5 74 26 24   97.19   -10 LegendNANA
07:00 -4.6 -9.2 70 26 20   97.32   -11 LegendNANA
08:00 -7.1 -10.9 74 25 15   97.42   -13 LegendNANA
09:00 -8.2 -11.8 76 24 12   97.50   -14 LegendNANA
10:00 -6.1 -11.6 65 28 18   97.55   -13 LegendNANA
11:00 -5.5 -11.7 61 28 14   97.63   -11 LegendNANA
12:00 -5.0 -12.5 55 29 17   97.67   -11 LegendNANA
13:00 -4.4 -12.3 54 28 14   97.69   -10 LegendNANA
14:00 -4.4 -12.7 52 29 15   97.71   -10 LegendNANA
15:00 -4.7 -12.7 54 29 12   97.76   -9 LegendNANA
16:00 -5.3 -12.9 55 28 14   97.82   -11 LegendNANA
17:00 -7.3 -13.1 63 30 6   97.89   -10 LegendNANA
18:00 -10.0 -14.8 68 29 5   97.91   -13 LegendNANA
19:00 -11.0 -14.3 76 28 10   97.96   -16 LegendNANA
20:00 -10.8 -14.6 73 29 8   98.02   -15 LegendNANA
21:00 -10.8 -13.7 79 28 3   98.03   -13 LegendNANA
22:00 -13.5 -15.6 84 29 8   98.08   -19 LegendNANA
23:00 -12.3 -14.9 81 31 8   98.11   -17 LegendNANA

Notes on Data Quality.

Legend

  • E = Estimated
  • M = Missing
  • NA = Not Available
  • ‡ = Partner data that is not subject to review by the National Climate Archives
Date modified: